World > North America > United States > Iowa

Faulkner, Iowa Regional Weather

Lat: 42.55N, Lon: 93.05W
Wx Zone: IAZ026Web Search
Faulkner Weather Warning NWS WEATHER ALERT FOR THE FAULKNER, IA AREA - Issued: 246 PM CDT Mon May 17 2021 Faulkner Weather Warning  

Ads allow us to feed your daily addiction for the world's greatest weather information. We're determined to offer quality sponsors, in the least annoying way possible.

Feedback


°F Click to change Faulkner hourly weather to Imperial units.Click to change Faulkner hourly weather to Metric units. °C
Faulkner Weather Map
UTC Time: 5/17/2021, 20:04
Your Time:

Faulkner, IA Regional Weather

Expires:202105172100;;272078
ASUS43 KDMX 172001
RWRIA 

WEATHER ROUNDUP FOR IOWA
NATIONAL WEATHER SERVICE DES MOINES IA
300 PM CDT MON MAY 17 2021

NOTE: "FAIR" INDICATES FEW OR NO CLOUDS BELOW 12,000 FEET WITH NO
SIGNIFICANT WEATHER AND/OR OBSTRUCTIONS TO VISIBILITY.

* - THESE STATIONS ARE NOT NWS STATIONS...THUS NOT UNDER NWS
QUALITY CONTROL.  THEY ALSO DO NOT REPORT WEATHER SUCH 
AS PRECIPITATION OR FOG.  


IAZ007>011-017>019-026>030-037>042-050>054-066-172100-
   NORTHEAST IOWA
  
CITY           SKY/WX    TMP DP  RH WIND       PRES   REMARKS
CEDAR RAPIDS   CLOUDY    64  57  78 E17       30.09F                  
CHARLES CITY *   N/A    N/A N/A N/A MISG        N/A                   
CLINTON *      CLOUDY    63  59  87 E20       30.15F                  
DECORAH *        N/A     72  50  46 SE13G22   30.12R                  
DUBUQUE        CLOUDY    68  54  60 SE14G24   30.14S                  
MONTICELLO *   PTSUNNY   70  59  68 SE20G26   30.12S                  
OELWEIN *      MOSUNNY   72  52  49 SE23G32   30.12F                  
WATERLOO       CLOUDY    70  54  56 E17G28    30.09F                  
$$
 

SKY/WX - Weather  TMP - Temperature  DP - Dew Point  RH - Relative Humidity
WIND - Wind Direction/Speed PRES - Barometric Pressure VSB - Visibility
WCI - Wind Chill Index E13G22 Wind - East Wind 13 mph/Gusts of 22 mph